Weather Roundup
Issued by NWS

Home | Current Version | Previous Version | Text Only | Print | Product List | Glossary On
Versions: 1 2 3 4 5 6 7 8 9 10 11 12 13 14 15 16 17 18 19 20 21 22 23 24 25 26 27 28 29 30 31 32 33 34 35 36 37 38 39 40 41 42 43 44 45 46 47 48 49 50
000
NZUS93 KARX 301310
HRRWXR

CURRENT HOURLY OBSERVATIONS ACROSS
MUCH OF THE UPPER MISSISSIPPI VALLEY
NATIONAL WEATHER SERVICE LA CROSSE WI
800 AM CDT THU JUL 30 2015


...SOUTHEAST MINNESOTA...


CITY           SKY/WX    TMP DP  RH WIND       PRES   REMARKS
ROCHESTER      SUNNY     65  57  75 W9        30.10R
ROCHESTER/MAYO FAIR      66  55  66 W8        30.07S
WINONA         NOT AVBL
AUSTIN         SUNNY     70  55  60 W7        30.09S
ALBERT LEA     SUNNY     66  57  72 W3        30.09F
DODGE CENTER   MOSUNNY   63  57  82 W8        30.08S
PRESTON        SUNNY     65  56  71 W10       30.09S
OWATONNA       SUNNY     64  57  77 W5        30.09R
FARIBAULT      SUNNY     66  59  77 SW5       30.07F
$$

...ELSEWHERE IN MINNESOTA...


CITY           SKY/WX    TMP DP  RH WIND       PRES   REMARKS
MINNEAPOLIS    SUNNY     69  55  60 W7        30.04S
INTNL FALLS    MOSUNNY   62  57  83 W7        29.92R
DULUTH         SUNNY     68  57  68 W12       29.94S
RED WING       SUNNY     70  57  64 W7        30.03S
REDWOOD FALLS  SUNNY     70  54  56 W10       30.08S
MANKATO        SUNNY     66  54  63 W8        30.08S
WORTHINGTON    SUNNY     66  55  68 W7        30.13S
FAIRMONT       SUNNY     66  54  63 W7        30.10S
$$

...SOUTHWEST WISCONSIN...


CITY           SKY/WX    TMP DP  RH WIND       PRES   REMARKS
LA CROSSE      SUNNY     73  56  54 VRB3      30.04R
PRAIRIE DU CHI SUNNY     69  56  62 CALM      30.07S
BOSCOBEL       SUNNY     68  61  78 SW5       30.06S
LONE ROCK      SUNNY     68  59  73 W6        30.06S
PLATTEVILLE    SUNNY     66  62  86 W6        30.09R
FORT MC COY    SUNNY     68  55  63 W6        30.04S
CAMP DOUGLAS   SUNNY     70  61  73 W9        30.02R
VIROQUA        FAIR      67  58  74 W5        30.07S
WIS DELLS      SUNNY     70  54  57 W9        30.04S
$$

...ELSEWHERE IN WISCONSIN...


CITY           SKY/WX    TMP DP  RH WIND       PRES   REMARKS
MILWAUKEE      SUNNY     73  55  53 NW10      30.01S
MADISON        SUNNY     70  58  65 VRB7      30.03S
GREEN BAY      SUNNY     70  58  65 W9        29.95S
EAU CLAIRE     SUNNY     66  57  72 W12       30.01R
BLACK RVR FLS  FAIR      68  57  67 W5        30.02S
MEDFORD        SUNNY     64  57  78 W9        30.00S
WAUSAU         SUNNY     68  56  65 W12       29.97R
WIS RAPIDS     SUNNY     69  55  60 W10       30.01S
MARSHFIELD     SUNNY     67  55  65 W8        30.00S
RICE LAKE      SUNNY     65  57  75 W8        30.02S
$$

...NORTHEAST IOWA...


CITY           SKY/WX    TMP DP  RH WIND       PRES   REMARKS
DECORAH        SUNNY     64  59  82 W5        30.08S
MASON CITY     SUNNY     69  59  70 W9        30.12S
CHARLES CITY   SUNNY     64  63  94 W5        30.11S
OELWEIN          N/A     66  63  88 W5        30.11S
$$

...ELSEWHERE IN IOWA...


CITY           SKY/WX    TMP DP  RH WIND       PRES   REMARKS
DES MOINES     SUNNY     70  58  65 W7        30.14S
IOWA CITY      SUNNY     69  61  75 NW8       30.12S
FORT DODGE     SUNNY     64  59  82 SW5       30.14S
$$

...NORTHERN ILLINOIS...


CITY           SKY/WX    TMP DP  RH WIND       PRES   REMARKS
CHICAGO-OHARE  SUNNY     71  59  65 W8        30.05S
CHICAGO-MIDWAY SUNNY     74  58  57 W12       30.05S
MOLINE         SUNNY     71  62  73 W7        30.10S
ROCKFORD       SUNNY     71  58  63 NW9       30.08S
PEORIA         SUNNY     74  59  59 NW7       30.12S
$$

NOTE: "FAIR" INDICATES FEW OR NO CLOUDS BELOW 12,000 FEET WITH NO
SIGNIFICANT WEATHER AND/OR OBSTRUCTIONS TO VISIBILITY. WIND
SPEEDS ARE IN MILES-PER-HOUR.



USA.gov is the U.S. government's official web portal to all federal, state and local government web resources and services.